,,PressureMeas_1m,,PRMeasQMR101_1,,RHStat155_1m_1,,SRMeasQMS101R_1m,,TAStat155_1m_1,,GenWind_1,,GenWind_1,
2018-07-04, 00:00:06,VALID,918.399,VALID,0.0,VALID,97.108,VALID,-0.005,VALID,19.971,VALID,184.0,VALID,0.235,
2018-07-04, 00:01:06,VALID,918.374,VALID,0.0,VALID,97.176,VALID,0.013,VALID,19.95,VALID,177.0,VALID,0.489,
2018-07-04, 00:02:06,VALID,918.34,VALID,0.0,VALID,97.254,VALID,-0.004,VALID,19.947,VALID,171.0,VALID,0.335,
2018-07-04, 00:03:06,VALID,918.328,VALID,0.0,VALID,97.352,VALID,-0.006,VALID,19.946,VALID,166.0,VALID,0.031,
2018-07-04, 00:04:06,VALID,918.325,VALID,0.0,VALID,97.368,VALID,-0.0,VALID,19.946,VALID,155.0,VALID,0.0,
2018-07-04, 00:05:06,VALID,918.297,VALID,0.0,VALID,97.392,VALID,-0.021,VALID,19.949,VALID,146.0,VALID,0.0,
2018-07-04, 00:06:06,VALID,918.285,VALID,0.0,VALID,97.42,VALID,-0.004,VALID,19.956,VALID,142.0,VALID,0.0,
2018-07-04, 00:07:06,VALID,918.264,VALID,0.0,VALID,97.356,VALID,-0.001,VALID,19.957,VALID,138.0,VALID,0.284,
2018-07-04, 00:08:06,VALID,918.253,VALID,0.0,VALID,97.259,VALID,-0.006,VALID,19.956,VALID,134.0,VALID,0.651,
2018-07-04, 00:09:06,VALID,918.234,VALID,0.0,VALID,97.148,VALID,0.001,VALID,19.978,VALID,129.0,VALID,0.8,
2018-07-04, 00:10:06,VALID,918.213,VALID,0.0,VALID,96.959,VALID,-0.006,VALID,19.996,VALID,123.0,VALID,1.039,
2018-07-04, 00:11:06,VALID,918.203,VALID,0.0,VALID,96.77,VALID,-0.0,VALID,20.022,VALID,125.0,VALID,1.051,
2018-07-04, 00:12:06,VALID,918.187,VALID,0.0,VALID,96.61,VALID,-0.004,VALID,20.043,VALID,128.0,VALID,0.958,
2018-07-04, 00:13:06,VALID,918.173,VALID,0.0,VALID,96.434,VALID,-0.006,VALID,20.073,VALID,129.0,VALID,0.541,
2018-07-04, 00:14:06,VALID,918.171,VALID,0.0,VALID,96.213,VALID,-0.004,VALID,20.084,VALID,121.0,VALID,0.688,
2018-07-04, 00:15:06,VALID,918.176,VALID,0.0,VALID,96.156,VALID,0.015,VALID,20.08,VALID,103.0,VALID,0.772,
2018-07-04, 00:16:06,VALID,918.171,VALID,0.0,VALID,96.069,VALID,-0.014,VALID,20.053,VALID,78.0,VALID,0.807,
2018-07-04, 00:17:06,VALID,918.165,VALID,0.0,VALID,96.029,VALID,-0.009,VALID,19.997,VALID,75.0,VALID,1.078,
2018-07-04, 00:18:06,VALID,918.152,VALID,0.0,VALID,96.432,VALID,-0.016,VALID,19.967,VALID,83.0,VALID,1.146,
2018-07-04, 00:19:06,VALID,918.139,VALID,0.0,VALID,96.674,VALID,-0.012,VALID,19.94,VALID,93.0,VALID,0.912,
2018-07-04, 00:20:06,VALID,918.129,VALID,0.0,VALID,96.804,VALID,-0.013,VALID,19.923,VALID,94.0,VALID,0.724,
2018-07-04, 00:21:06,VALID,918.121,VALID,0.0,VALID,96.816,VALID,-0.004,VALID,19.892,VALID,92.0,VALID,0.793,
2018-07-04, 00:22:06,VALID,918.111,VALID,0.0,VALID,96.862,VALID,0.015,VALID,19.861,VALID,86.0,VALID,0.914,
2018-07-04, 00:23:06,VALID,918.105,VALID,0.0,VALID,96.981,VALID,-0.016,VALID,19.845,VALID,95.0,VALID,0.971,
2018-07-04, 00:24:06,VALID,918.098,VALID,0.0,VALID,97.078,VALID,0.0,VALID,19.846,VALID,113.0,VALID,1.047,
2018-07-04, 00:25:06,VALID,918.09,VALID,0.0,VALID,97.165,VALID,0.007,VALID,19.869,VALID,113.0,VALID,0.771,
2018-07-04, 00:26:06,VALID,918.076,VALID,0.0,VALID,97.124,VALID,0.007,VALID,19.878,VALID,123.0,VALID,0.707,
2018-07-04, 00:27:06,VALID,918.075,VALID,0.0,VALID,97.14,VALID,-0.004,VALID,19.888,VALID,138.0,VALID,0.518,
2018-07-04, 00:28:06,VALID,918.068,VALID,0.0,VALID,97.165,VALID,-0.009,VALID,19.921,VALID,131.0,VALID,0.373,
2018-07-04, 00:29:06,VALID,918.063,VALID,0.0,VALID,97.052,VALID,-0.003,VALID,19.918,VALID,97.0,VALID,0.255,
2018-07-04, 00:30:06,VALID,918.071,VALID,0.0,VALID,96.82,VALID,0.006,VALID,19.879,VALID,73.0,VALID,0.554,
2018-07-04, 00:31:06,VALID,918.066,VALID,0.0,VALID,96.687,VALID,-0.004,VALID,19.831,VALID,72.0,VALID,0.495,
2018-07-04, 00:32:06,VALID,918.059,VALID,0.0,VALID,96.84,VALID,0.005,VALID,19.794,VALID,72.0,VALID,0.52,
2018-07-04, 00:33:06,VALID,918.05,VALID,0.0,VALID,97.058,VALID,-0.0,VALID,19.777,VALID,81.0,VALID,0.361,
2018-07-04, 00:34:06,VALID,918.035,VALID,0.0,VALID,97.173,VALID,-0.004,VALID,19.766,VALID,81.0,VALID,0.194,
2018-07-04, 00:35:06,VALID,918.027,VALID,0.0,VALID,97.324,VALID,0.023,VALID,19.777,VALID,96.0,VALID,0.066,
2018-07-04, 00:36:06,VALID,918.014,VALID,0.0,VALID,97.485,VALID,0.012,VALID,19.795,VALID,105.0,VALID,0.062,
2018-07-04, 00:37:06,VALID,918.007,VALID,0.0,VALID,97.582,VALID,0.016,VALID,19.813,VALID,105.0,VALID,0.055,
2018-07-04, 00:38:06,VALID,917.997,VALID,0.0,VALID,97.623,VALID,0.013,VALID,19.815,VALID,105.0,VALID,0.014,
2018-07-04, 00:39:06,VALID,918.001,VALID,0.0,VALID,97.612,VALID,-0.004,VALID,19.799,VALID,105.0,VALID,0.002,
2018-07-04, 00:40:06,VALID,918.003,VALID,0.0,VALID,97.555,VALID,0.005,VALID,19.777,VALID,105.0,VALID,0.0,
2018-07-04, 00:41:06,VALID,917.991,VALID,0.0,VALID,97.498,VALID,0.011,VALID,19.753,VALID,105.0,VALID,0.0,
2018-07-04, 00:42:06,VALID,917.981,VALID,0.0,VALID,97.437,VALID,0.003,VALID,19.737,VALID,105.0,VALID,0.0,
2018-07-04, 00:43:06,VALID,917.961,VALID,0.0,VALID,97.412,VALID,-0.012,VALID,19.733,VALID,105.0,VALID,0.016,
2018-07-04, 00:44:06,VALID,917.936,VALID,0.0,VALID,97.449,VALID,0.005,VALID,19.748,VALID,105.0,VALID,0.0,
2018-07-04, 00:45:06,VALID,917.927,VALID,0.0,VALID,97.558,VALID,-0.005,VALID,19.793,VALID,115.0,VALID,0.0,
2018-07-04, 00:46:06,VALID,917.922,VALID,0.0,VALID,97.637,VALID,-0.011,VALID,19.846,VALID,139.0,VALID,0.0,
2018-07-04, 00:47:06,VALID,917.927,VALID,0.0,VALID,97.417,VALID,-0.005,VALID,19.828,VALID,139.0,VALID,0.0,
2018-07-04, 00:48:06,VALID,917.931,VALID,0.0,VALID,97.302,VALID,-0.004,VALID,19.83,VALID,142.0,VALID,0.0,
2018-07-04, 00:49:06,VALID,917.955,VALID,0.0,VALID,97.186,VALID,-0.011,VALID,19.808,VALID,141.0,VALID,0.0,
2018-07-04, 00:50:06,VALID,917.972,VALID,0.0,VALID,97.068,VALID,-0.001,VALID,19.767,VALID,141.0,VALID,0.0,
2018-07-04, 00:51:06,VALID,917.977,VALID,0.0,VALID,97.196,VALID,0.005,VALID,19.767,VALID,141.0,VALID,0.0,
2018-07-04, 00:52:06,VALID,917.992,VALID,0.0,VALID,97.118,VALID,0.004,VALID,19.743,VALID,141.0,VALID,0.0,
2018-07-04, 00:53:06,VALID,918.001,VALID,0.0,VALID,97.191,VALID,0.006,VALID,19.751,VALID,141.0,VALID,0.0,
2018-07-04, 00:54:06,VALID,918.019,VALID,0.0,VALID,97.188,VALID,-0.004,VALID,19.761,VALID,141.0,VALID,0.0,
2018-07-04, 00:55:06,VALID,918.033,VALID,0.0,VALID,97.24,VALID,-0.004,VALID,19.787,VALID,141.0,VALID,0.0,
2018-07-04, 00:56:06,VALID,918.047,VALID,0.0,VALID,97.277,VALID,0.004,VALID,19.796,VALID,90.0,VALID,0.221,
2018-07-04, 00:57:06,VALID,918.066,VALID,0.0,VALID,96.905,VALID,0.007,VALID,19.725,VALID,53.0,VALID,0.284,
2018-07-04, 00:58:06,VALID,918.066,VALID,0.0,VALID,96.904,VALID,-0.006,VALID,19.679,VALID,53.0,VALID,0.266,
2018-07-04, 00:59:06,VALID,918.076,VALID,0.0,VALID,97.115,VALID,0.002,VALID,19.666,VALID,53.0,VALID,0.282,
2018-07-04, 01:00:06,VALID,918.074,VALID,0.0,VALID,97.337,VALID,-0.018,VALID,19.659,VALID,50.0,VALID,0.396,
2018-07-04, 01:01:06,VALID,918.074,VALID,0.0,VALID,97.457,VALID,-0.001,VALID,19.643,VALID,40.0,VALID,0.458,
2018-07-04, 01:02:06,VALID,918.076,VALID,0.0,VALID,97.566,VALID,0.004,VALID,19.633,VALID,17.0,VALID,0.436,
2018-07-04, 01:03:06,VALID,918.074,VALID,0.0,VALID,97.692,VALID,0.004,VALID,19.631,VALID,12.0,VALID,0.457,
2018-07-04, 01:04:06,VALID,918.086,VALID,0.0,VALID,97.74,VALID,-0.003,VALID,19.624,VALID,13.0,VALID,0.423,
2018-07-04, 01:05:06,VALID,918.079,VALID,0.0,VALID,97.821,VALID,0.003,VALID,19.628,VALID,17.0,VALID,0.495,
2018-07-04, 01:06:06,VALID,918.081,VALID,0.0,VALID,97.941,VALID,-0.013,VALID,19.631,VALID,22.0,VALID,0.495,
2018-07-04, 01:07:06,VALID,918.081,VALID,0.0,VALID,97.876,VALID,-0.01,VALID,19.593,VALID,22.0,VALID,0.409,
2018-07-04, 01:08:06,VALID,918.074,VALID,0.0,VALID,97.967,VALID,0.014,VALID,19.593,VALID,22.0,VALID,0.333,
2018-07-04, 01:09:06,VALID,918.073,VALID,0.0,VALID,98.036,VALID,-0.003,VALID,19.596,VALID,22.0,VALID,0.174,
2018-07-04, 01:10:06,VALID,918.065,VALID,0.0,VALID,98.085,VALID,-0.001,VALID,19.589,VALID,5.0,VALID,0.229,
2018-07-04, 01:11:06,VALID,918.057,VALID,0.0,VALID,98.163,VALID,0.009,VALID,19.598,VALID,354.0,VALID,0.231,
2018-07-04, 01:12:06,VALID,918.033,VALID,0.0,VALID,98.167,VALID,0.012,VALID,19.595,VALID,353.0,VALID,0.357,
2018-07-04, 01:13:06,VALID,918.017,VALID,0.0,VALID,98.205,VALID,-0.004,VALID,19.591,VALID,352.0,VALID,0.407,
2018-07-04, 01:14:06,VALID,918.0,VALID,0.0,VALID,98.236,VALID,-0.003,VALID,19.584,VALID,352.0,VALID,0.361,
2018-07-04, 01:15:06,VALID,917.976,VALID,0.0,VALID,98.293,VALID,-0.001,VALID,19.596,VALID,352.0,VALID,0.241,
2018-07-04, 01:16:06,VALID,917.978,VALID,0.0,VALID,98.364,VALID,0.001,VALID,19.611,VALID,352.0,VALID,0.122,
2018-07-04, 01:17:06,VALID,917.972,VALID,0.0,VALID,98.39,VALID,0.008,VALID,19.625,VALID,355.0,VALID,0.125,
2018-07-04, 01:18:06,VALID,917.973,VALID,0.0,VALID,98.422,VALID,-0.0,VALID,19.629,VALID,355.0,VALID,0.015,
2018-07-04, 01:19:06,VALID,917.973,VALID,0.0,VALID,98.389,VALID,-0.006,VALID,19.606,VALID,355.0,VALID,0.0,
2018-07-04, 01:20:06,VALID,917.965,VALID,0.0,VALID,98.347,VALID,-0.007,VALID,19.56,VALID,355.0,VALID,0.0,
2018-07-04, 01:21:06,VALID,917.977,VALID,0.0,VALID,98.314,VALID,0.01,VALID,19.52,VALID,355.0,VALID,0.0,
2018-07-04, 01:22:06,VALID,917.956,VALID,0.0,VALID,98.33,VALID,-0.0,VALID,19.505,VALID,355.0,VALID,0.0,
2018-07-04, 01:23:06,VALID,917.949,VALID,0.0,VALID,98.397,VALID,-0.003,VALID,19.511,VALID,355.0,VALID,0.0,
2018-07-04, 01:24:06,VALID,917.933,VALID,0.0,VALID,98.423,VALID,0.001,VALID,19.527,VALID,355.0,VALID,0.0,
2018-07-04, 01:25:06,VALID,917.918,VALID,0.0,VALID,98.431,VALID,0.01,VALID,19.534,VALID,355.0,VALID,0.0,
2018-07-04, 01:26:06,VALID,917.895,VALID,0.0,VALID,98.405,VALID,0.001,VALID,19.512,VALID,355.0,VALID,0.0,
2018-07-04, 01:27:06,VALID,917.879,VALID,0.0,VALID,98.396,VALID,-0.007,VALID,19.487,VALID,351.0,VALID,0.0,
2018-07-04, 01:28:06,VALID,917.866,VALID,0.0,VALID,98.427,VALID,-0.001,VALID,19.491,VALID,349.0,VALID,0.0,
2018-07-04, 01:29:06,VALID,917.862,VALID,0.0,VALID,98.455,VALID,-0.015,VALID,19.5,VALID,349.0,VALID,0.0,
2018-07-04, 01:30:06,VALID,917.866,VALID,0.0,VALID,98.465,VALID,0.001,VALID,19.509,VALID,349.0,VALID,0.0,
2018-07-04, 01:31:06,VALID,917.872,VALID,0.0,VALID,98.496,VALID,-0.009,VALID,19.522,VALID,349.0,VALID,0.0,
2018-07-04, 01:32:06,VALID,917.879,VALID,0.0,VALID,98.5,VALID,0.005,VALID,19.517,VALID,349.0,VALID,0.0,
2018-07-04, 01:33:06,VALID,917.875,VALID,0.0,VALID,98.426,VALID,0.02,VALID,19.467,VALID,349.0,VALID,0.0,
2018-07-04, 01:34:06,VALID,917.867,VALID,0.0,VALID,98.298,VALID,0.023,VALID,19.359,VALID,73.0,VALID,0.0,
2018-07-04, 01:35:06,VALID,917.858,VALID,0.0,VALID,98.288,VALID,-0.017,VALID,19.314,VALID,105.0,VALID,0.0,
2018-07-04, 01:36:06,VALID,917.853,VALID,0.0,VALID,98.356,VALID,-0.01,VALID,19.345,VALID,105.0,VALID,0.0,
2018-07-04, 01:37:06,VALID,917.844,VALID,0.0,VALID,98.424,VALID,-0.003,VALID,19.351,VALID,129.0,VALID,0.0,
2018-07-04, 01:38:06,VALID,917.845,VALID,0.0,VALID,98.424,VALID,-0.008,VALID,19.33,VALID,149.0,VALID,0.0,
2018-07-04, 01:39:06,VALID,917.843,VALID,0.0,VALID,98.465,VALID,-0.008,VALID,19.328,VALID,143.0,VALID,0.0,
2018-07-04, 01:40:06,VALID,917.851,VALID,0.0,VALID,98.498,VALID,-0.003,VALID,19.353,VALID,132.0,VALID,0.0,
2018-07-04, 01:41:06,VALID,917.854,VALID,0.0,VALID,98.543,VALID,0.008,VALID,19.366,VALID,130.0,VALID,0.0,
2018-07-04, 01:42:06,VALID,917.867,VALID,0.0,VALID,98.588,VALID,0.005,VALID,19.379,VALID,129.0,VALID,0.0,
2018-07-04, 01:43:06,VALID,917.869,VALID,0.0,VALID,98.61,VALID,-0.007,VALID,19.385,VALID,129.0,VALID,0.0,
2018-07-04, 01:44:06,VALID,917.876,VALID,0.0,VALID,98.638,VALID,-0.0,VALID,19.377,VALID,129.0,VALID,0.24,
2018-07-04, 01:45:06,VALID,917.855,VALID,0.0,VALID,98.624,VALID,-0.015,VALID,19.369,VALID,149.0,VALID,0.297,
2018-07-04, 01:46:06,VALID,917.843,VALID,0.0,VALID,98.674,VALID,0.002,VALID,19.374,VALID,157.0,VALID,0.002,
2018-07-04, 01:47:06,VALID,917.842,VALID,0.0,VALID,98.673,VALID,-0.011,VALID,19.385,VALID,157.0,VALID,0.0,
2018-07-04, 01:48:06,VALID,917.839,VALID,0.0,VALID,98.658,VALID,-0.011,VALID,19.364,VALID,156.0,VALID,0.0,
2018-07-04, 01:49:06,VALID,917.835,VALID,0.0,VALID,98.599,VALID,-0.032,VALID,19.314,VALID,156.0,VALID,0.0,
2018-07-04, 01:50:06,VALID,917.846,VALID,0.0,VALID,98.583,VALID,0.03,VALID,19.258,VALID,156.0,VALID,0.0,
2018-07-04, 01:51:06,VALID,917.852,VALID,0.0,VALID,98.578,VALID,0.03,VALID,19.237,VALID,156.0,VALID,0.0,
2018-07-04, 01:52:06,VALID,917.837,VALID,0.0,VALID,98.605,VALID,0.021,VALID,19.264,VALID,156.0,VALID,0.0,
2018-07-04, 01:53:06,VALID,917.842,VALID,0.0,VALID,98.639,VALID,0.037,VALID,19.289,VALID,166.0,VALID,0.091,
2018-07-04, 01:54:06,VALID,917.831,VALID,0.0,VALID,98.649,VALID,0.024,VALID,19.32,INVALID,360.0,VALID,0.0,
2018-07-04, 01:55:06,VALID,917.823,VALID,0.0,VALID,98.64,VALID,0.02,VALID,19.349,INVALID,360.0,VALID,0.01,
2018-07-04, 01:56:06,VALID,917.805,VALID,0.0,VALID,98.672,VALID,0.01,VALID,19.371,INVALID,360.0,VALID,0.0,
2018-07-04, 01:57:06,VALID,917.795,VALID,0.0,VALID,98.655,VALID,-0.005,VALID,19.393,INVALID,360.0,VALID,0.0,
2018-07-04, 01:58:06,VALID,917.789,VALID,0.0,VALID,98.685,VALID,0.016,VALID,19.393,INVALID,360.0,VALID,0.0,
2018-07-04, 01:59:06,VALID,917.788,VALID,0.0,VALID,98.676,VALID,0.03,VALID,19.408,INVALID,360.0,VALID,0.0,
2018-07-04, 02:00:06,VALID,917.789,VALID,0.0,VALID,98.674,VALID,0.021,VALID,19.414,INVALID,360.0,VALID,0.0,
2018-07-04, 02:01:06,VALID,917.785,VALID,0.0,VALID,98.689,VALID,0.016,VALID,19.415,INVALID,360.0,VALID,0.0,
2018-07-04, 02:02:06,VALID,917.788,VALID,0.0,VALID,98.697,VALID,0.023,VALID,19.432,INVALID,360.0,VALID,0.0,
2018-07-04, 02:03:06,VALID,917.791,VALID,0.0,VALID,98.686,VALID,0.032,VALID,19.398,INVALID,360.0,VALID,0.0,
2018-07-04, 02:04:07,VALID,917.775,VALID,0.0,VALID,98.704,VALID,0.019,VALID,19.403,INVALID,360.0,VALID,0.078,
2018-07-04, 02:05:07,VALID,917.77,VALID,0.0,VALID,98.709,VALID,-0.001,VALID,19.419,VALID,171.0,VALID,0.15,
2018-07-04, 02:06:07,VALID,917.773,VALID,0.0,VALID,98.72,VALID,-0.007,VALID,19.422,INVALID,360.0,VALID,0.0,
2018-07-04, 02:07:07,VALID,917.773,VALID,0.0,VALID,98.701,VALID,-0.002,VALID,19.402,INVALID,360.0,VALID,0.0,
2018-07-04, 02:08:07,VALID,917.77,VALID,0.0,VALID,98.616,VALID,0.004,VALID,19.303,INVALID,360.0,VALID,0.0,
2018-07-04, 02:09:07,VALID,917.778,VALID,0.0,VALID,98.576,VALID,0.003,VALID,19.24,INVALID,360.0,VALID,0.0,
2018-07-04, 02:10:07,VALID,917.767,VALID,0.0,VALID,98.578,VALID,-0.001,VALID,19.208,INVALID,360.0,VALID,0.0,
2018-07-04, 02:11:07,VALID,917.757,VALID,0.0,VALID,98.555,VALID,-0.017,VALID,19.187,INVALID,360.0,VALID,0.0,
2018-07-04, 02:12:07,VALID,917.736,VALID,0.0,VALID,98.553,VALID,-0.008,VALID,19.168,INVALID,360.0,VALID,0.0,
2018-07-04, 02:13:07,VALID,917.709,VALID,0.0,VALID,98.551,VALID,-0.01,VALID,19.157,INVALID,360.0,VALID,0.0,
2018-07-04, 02:14:07,VALID,917.695,VALID,0.0,VALID,98.571,VALID,-0.016,VALID,19.158,INVALID,360.0,VALID,0.0,
2018-07-04, 02:15:07,VALID,917.688,VALID,0.0,VALID,98.561,VALID,-0.009,VALID,19.152,INVALID,360.0,VALID,0.0,
2018-07-04, 02:16:07,VALID,917.668,VALID,0.0,VALID,98.586,VALID,-0.001,VALID,19.154,INVALID,360.0,VALID,0.0,
2018-07-04, 02:17:07,VALID,917.665,VALID,0.0,VALID,98.603,VALID,0.003,VALID,19.154,INVALID,360.0,VALID,0.0,
2018-07-04, 02:18:07,VALID,917.647,VALID,0.0,VALID,98.593,VALID,-0.002,VALID,19.144,INVALID,360.0,VALID,0.0,
2018-07-04, 02:19:07,VALID,917.649,VALID,0.0,VALID,98.658,VALID,0.003,VALID,19.162,INVALID,360.0,VALID,0.0,
2018-07-04, 02:20:07,VALID,917.648,VALID,0.0,VALID,98.664,VALID,0.002,VALID,19.185,INVALID,360.0,VALID,0.0,
2018-07-04, 02:21:07,VALID,917.647,VALID,0.0,VALID,98.631,VALID,-0.002,VALID,19.183,INVALID,360.0,VALID,0.0,
2018-07-04, 02:22:07,VALID,917.622,VALID,0.0,VALID,98.617,VALID,-0.013,VALID,19.139,INVALID,360.0,VALID,0.0,
2018-07-04, 02:23:07,VALID,917.612,VALID,0.0,VALID,98.587,VALID,-0.004,VALID,19.103,INVALID,360.0,VALID,0.001,
2018-07-04, 02:24:07,VALID,917.607,VALID,0.0,VALID,98.531,VALID,-0.004,VALID,19.046,VALID,143.0,VALID,0.058,
2018-07-04, 02:25:07,VALID,917.594,VALID,0.0,VALID,98.512,VALID,0.004,VALID,19.019,VALID,137.0,VALID,0.383,
2018-07-04, 02:26:07,VALID,917.58,VALID,0.0,VALID,98.619,VALID,0.008,VALID,19.101,VALID,131.0,VALID,0.68,
2018-07-04, 02:27:07,VALID,917.578,VALID,0.0,VALID,98.674,VALID,0.003,VALID,19.165,VALID,125.0,VALID,0.83,
2018-07-04, 02:28:07,VALID,917.583,VALID,0.0,VALID,98.731,VALID,0.011,VALID,19.231,VALID,118.0,VALID,0.759,
2018-07-04, 02:29:07,VALID,917.58,VALID,0.0,VALID,98.756,VALID,0.019,VALID,19.257,VALID,115.0,VALID,0.357,
2018-07-04, 02:30:07,VALID,917.577,VALID,0.0,VALID,98.739,VALID,0.022,VALID,19.251,VALID,111.0,VALID,0.155,
2018-07-04, 02:31:07,VALID,917.585,VALID,0.0,VALID,98.723,VALID,0.015,VALID,19.215,VALID,90.0,VALID,0.248,
2018-07-04, 02:32:07,VALID,917.585,VALID,0.0,VALID,98.632,VALID,0.014,VALID,19.132,VALID,82.0,VALID,0.258,
2018-07-04, 02:33:07,VALID,917.599,VALID,0.0,VALID,98.703,VALID,0.007,VALID,19.119,VALID,74.0,VALID,0.211,
2018-07-04, 02:34:07,VALID,917.589,VALID,0.0,VALID,98.733,VALID,-0.005,VALID,19.138,VALID,67.0,VALID,0.329,
2018-07-04, 02:35:07,VALID,917.599,VALID,0.0,VALID,98.757,VALID,0.034,VALID,19.13,VALID,66.0,VALID,0.257,
2018-07-04, 02:36:07,VALID,917.591,VALID,0.0,VALID,98.768,VALID,0.026,VALID,19.128,VALID,65.0,VALID,0.154,
2018-07-04, 02:37:07,VALID,917.593,VALID,0.0,VALID,98.751,VALID,0.026,VALID,19.107,VALID,65.0,VALID,0.055,
2018-07-04, 02:38:07,VALID,917.574,VALID,0.0,VALID,98.775,VALID,0.028,VALID,19.109,VALID,65.0,VALID,0.107,
2018-07-04, 02:39:07,VALID,917.582,VALID,0.0,VALID,98.792,VALID,0.031,VALID,19.115,VALID,65.0,VALID,0.127,
2018-07-04, 02:40:07,VALID,917.572,VALID,0.0,VALID,98.766,VALID,0.029,VALID,19.088,VALID,81.0,VALID,0.399,
2018-07-04, 02:41:07,VALID,917.571,VALID,0.0,VALID,98.764,VALID,0.044,VALID,19.07,VALID,105.0,VALID,0.741,
2018-07-04, 02:42:07,VALID,917.568,VALID,0.0,VALID,98.834,VALID,0.028,VALID,19.144,VALID,108.0,VALID,0.46,
2018-07-04, 02:43:07,VALID,917.557,VALID,0.0,VALID,98.848,VALID,0.017,VALID,19.173,VALID,107.0,VALID,0.351,
2018-07-04, 02:44:07,VALID,917.565,VALID,0.0,VALID,98.853,VALID,0.022,VALID,19.183,VALID,99.0,VALID,0.437,
2018-07-04, 02:45:07,VALID,917.57,VALID,0.0,VALID,98.841,VALID,0.032,VALID,19.174,VALID,97.0,VALID,0.162,
2018-07-04, 02:46:07,VALID,917.56,VALID,0.0,VALID,98.816,VALID,0.036,VALID,19.15,VALID,95.0,VALID,0.328,
2018-07-04, 02:47:07,VALID,917.553,VALID,0.0,VALID,98.807,VALID,0.033,VALID,19.134,VALID,95.0,VALID,0.436,
2018-07-04, 02:48:07,VALID,917.543,VALID,0.0,VALID,98.805,VALID,0.032,VALID,19.123,VALID,99.0,VALID,0.475,
2018-07-04, 02:49:07,VALID,917.548,VALID,0.0,VALID,98.814,VALID,0.046,VALID,19.129,VALID,110.0,VALID,0.709,
2018-07-04, 02:50:07,VALID,917.531,VALID,0.0,VALID,98.838,VALID,-0.007,VALID,19.146,VALID,105.0,VALID,0.652,
2018-07-04, 02:51:07,VALID,917.512,VALID,0.0,VALID,98.832,VALID,0.003,VALID,19.15,VALID,99.0,VALID,0.943,
2018-07-04, 02:52:07,VALID,917.508,VALID,0.0,VALID,98.85,VALID,-0.009,VALID,19.149,VALID,99.0,VALID,1.061,
2018-07-04, 02:53:07,VALID,917.492,VALID,0.0,VALID,98.83,VALID,0.001,VALID,19.127,VALID,103.0,VALID,0.999,
2018-07-04, 02:54:07,VALID,917.491,VALID,0.0,VALID,98.832,VALID,-0.002,VALID,19.118,VALID,102.0,VALID,0.943,
2018-07-04, 02:55:07,VALID,917.465,VALID,0.0,VALID,98.864,VALID,0.011,VALID,19.14,VALID,104.0,VALID,1.107,
2018-07-04, 02:56:07,VALID,917.458,VALID,0.0,VALID,98.898,VALID,-0.007,VALID,19.17,VALID,108.0,VALID,1.425,
2018-07-04, 02:57:07,VALID,917.456,VALID,0.0,VALID,98.93,VALID,-0.012,VALID,19.196,VALID,103.0,VALID,1.473,
2018-07-04, 02:58:07,VALID,917.456,VALID,0.0,VALID,98.909,VALID,-0.016,VALID,19.202,VALID,99.0,VALID,1.445,
2018-07-04, 02:59:07,VALID,917.447,VALID,0.0,VALID,98.913,VALID,-0.015,VALID,19.188,VALID,93.0,VALID,1.509,
2018-07-04, 03:00:07,VALID,917.457,VALID,0.0,VALID,98.922,VALID,-0.004,VALID,19.158,VALID,101.0,VALID,1.498,
2018-07-04, 03:01:07,VALID,917.474,VALID,0.0,VALID,98.912,VALID,-0.006,VALID,19.163,VALID,108.0,VALID,1.575,
2018-07-04, 03:02:07,VALID,917.475,VALID,0.0,VALID,98.943,VALID,-0.006,VALID,19.172,VALID,108.0,VALID,1.482,
2018-07-04, 03:03:07,VALID,917.471,VALID,0.0,VALID,98.909,VALID,-0.009,VALID,19.157,VALID,111.0,VALID,1.915,
2018-07-04, 03:04:07,VALID,917.477,VALID,0.0,VALID,98.949,VALID,-0.006,VALID,19.173,VALID,112.0,VALID,2.151,
2018-07-04, 03:05:07,VALID,917.477,VALID,0.0,VALID,98.983,VALID,-0.034,VALID,19.194,VALID,119.0,VALID,1.936,
2018-07-04, 03:06:07,VALID,917.464,VALID,0.0,VALID,98.959,VALID,-0.011,VALID,19.215,VALID,124.0,VALID,2.009,
2018-07-04, 03:07:07,VALID,917.448,VALID,0.0,VALID,98.961,VALID,-0.01,VALID,19.218,VALID,115.0,VALID,1.854,
2018-07-04, 03:08:07,VALID,917.424,VALID,0.0,VALID,98.966,VALID,-0.005,VALID,19.218,VALID,117.0,VALID,2.237,
2018-07-04, 03:09:07,VALID,917.407,VALID,0.0,VALID,98.97,VALID,-0.012,VALID,19.225,VALID,116.0,VALID,1.934,
2018-07-04, 03:10:07,VALID,917.405,VALID,0.0,VALID,98.968,VALID,-0.006,VALID,19.228,VALID,119.0,VALID,1.976,
2018-07-04, 03:11:07,VALID,917.377,VALID,0.0,VALID,98.97,VALID,-0.028,VALID,19.235,VALID,115.0,VALID,1.836,
2018-07-04, 03:12:07,VALID,917.368,VALID,0.0,VALID,98.942,VALID,-0.016,VALID,19.216,VALID,106.0,VALID,1.786,
2018-07-04, 03:13:07,VALID,917.367,VALID,0.0,VALID,98.947,VALID,-0.002,VALID,19.204,VALID,106.0,VALID,1.736,
2018-07-04, 03:14:07,VALID,917.359,VALID,0.0,VALID,98.932,VALID,-0.005,VALID,19.202,VALID,102.0,VALID,1.627,
2018-07-04, 03:15:07,VALID,917.361,VALID,0.0,VALID,98.919,VALID,-0.018,VALID,19.19,VALID,100.0,VALID,1.575,
2018-07-04, 03:16:07,VALID,917.366,VALID,0.0,VALID,98.908,VALID,0.005,VALID,19.191,VALID,98.0,VALID,1.591,
2018-07-04, 03:17:07,VALID,917.367,VALID,0.0,VALID,98.915,VALID,0.006,VALID,19.205,VALID,100.0,VALID,1.645,
2018-07-04, 03:18:07,VALID,917.363,VALID,0.0,VALID,98.891,VALID,0.008,VALID,19.213,VALID,111.0,VALID,1.625,
2018-07-04, 03:19:07,VALID,917.371,VALID,0.0,VALID,98.88,VALID,0.004,VALID,19.222,VALID,130.0,VALID,1.413,
2018-07-04, 03:20:07,VALID,917.357,VALID,0.0,VALID,98.889,VALID,-0.033,VALID,19.258,VALID,131.0,VALID,1.808,
2018-07-04, 03:21:07,VALID,917.363,VALID,0.0,VALID,98.853,VALID,-0.038,VALID,19.299,VALID,135.0,VALID,1.847,
2018-07-04, 03:22:07,VALID,917.361,VALID,0.0,VALID,98.789,VALID,-0.024,VALID,19.321,VALID,131.0,VALID,1.712,
2018-07-04, 03:23:07,VALID,917.352,VALID,0.0,VALID,98.707,VALID,-0.019,VALID,19.335,VALID,130.0,VALID,1.992,
2018-07-04, 03:24:07,VALID,917.347,VALID,0.0,VALID,98.636,VALID,-0.017,VALID,19.337,VALID,129.0,VALID,1.741,
2018-07-04, 03:25:07,VALID,917.323,VALID,0.0,VALID,98.597,VALID,-0.032,VALID,19.347,VALID,136.0,VALID,1.747,
2018-07-04, 03:26:07,VALID,917.321,VALID,0.0,VALID,98.512,VALID,-0.047,VALID,19.343,VALID,126.0,VALID,1.458,
2018-07-04, 03:27:07,VALID,917.304,VALID,0.0,VALID,98.492,VALID,-0.03,VALID,19.327,VALID,138.0,VALID,1.393,
2018-07-04, 03:28:07,VALID,917.294,VALID,0.0,VALID,98.46,VALID,-0.038,VALID,19.317,VALID,138.0,VALID,1.355,
2018-07-04, 03:29:07,VALID,917.284,VALID,0.0,VALID,98.431,VALID,-0.032,VALID,19.311,VALID,131.0,VALID,1.262,
2018-07-04, 03:30:07,VALID,917.276,VALID,0.0,VALID,98.422,VALID,-0.024,VALID,19.302,VALID,135.0,VALID,1.482,
2018-07-04, 03:31:07,VALID,917.271,VALID,0.0,VALID,98.441,VALID,-0.025,VALID,19.303,VALID,140.0,VALID,1.841,
2018-07-04, 03:32:07,VALID,917.27,VALID,0.0,VALID,98.443,VALID,-0.032,VALID,19.312,VALID,131.0,VALID,1.427,
2018-07-04, 03:33:07,VALID,917.274,VALID,0.0,VALID,98.391,VALID,-0.028,VALID,19.311,VALID,136.0,VALID,1.548,
2018-07-04, 03:34:07,VALID,917.27,VALID,0.0,VALID,98.383,VALID,-0.014,VALID,19.303,VALID,138.0,VALID,1.404,
2018-07-04, 03:35:07,VALID,917.255,VALID,0.0,VALID,98.334,VALID,-0.025,VALID,19.302,VALID,143.0,VALID,1.264,
2018-07-04, 03:36:07,VALID,917.241,VALID,0.0,VALID,98.302,VALID,-0.036,VALID,19.314,VALID,135.0,VALID,1.264,
2018-07-04, 03:37:07,VALID,917.231,VALID,0.0,VALID,98.237,VALID,-0.019,VALID,19.331,VALID,146.0,VALID,0.688,
2018-07-04, 03:38:07,VALID,917.218,VALID,0.0,VALID,98.149,VALID,-0.028,VALID,19.328,VALID,138.0,VALID,0.888,
2018-07-04, 03:39:07,VALID,917.201,VALID,0.0,VALID,98.08,VALID,-0.052,VALID,19.326,VALID,133.0,VALID,1.757,